map of TRN home
TRN - Airport
Location
City:  Turin, Piedmont, Italy
Near (Alt.):Torino
Name:Caselle
ICAO:LIMF
IATA:TRN

Details
Type:Airport (Aerodrome, Airfield)
Use:Public/Civil
Latitude:4512'03"N (45.200761)
Longitude:738'59"E (7.649631)
Datum:WGS 1984
Elevation:989 ft (301 m)
Variation:2.25E (WMM2015 magnetic declination)
0.12 annual change
Runways:1
Longest:10827 × 197 ft (3300 × 60 m), paved

Time
Time Zone:UTC+1 (DST+2)
Local Time:

Weather
METAR:LIMF 180420Z 28004KT 230V310 6000 NSC M01/M01 Q1009
TAF:LIMF 172300Z 1800/1824 VRB05KT 7000 NSC
TEMPO 1802/1807 3500 BR

Related Locations
Nearby:
Farthest:CHT: 12214 mi / 19656 km
Waitangi [Tuuta], CIT, NZ

Find:

   beyond  
but within

Other Information
Maps:
NOTAMs:
Links:
Sources:

  
  • flag of Italy
  • flag of Piedmont
  

Sectional Chart

Flight Planning
at skyvector.com

Satellite Image

Google Maps Satellite view

 

Copyright © 2004-2019 Karl L. Swartz. All rights reserved.
The Great Circle Mapper name and logo are trademarks of the Great Circle Mapper.
All other trademarks mentioned herein belong to their respective owners.
Please see credits for attibutions and further copyright information.

  Follow gcmap on Facebook Follow gcmap on Twitter Follow gcmap on Google+ GCmap on LinkedIn

hCard Microformat

Geo Microformat